CW8398 Stockholm SE current weather conditions

sailwx.info

Wind from 190

Air temperature 4.4° C
Dewpoint -3.6° C

Last reported at 2019-Nov-18 00:08 UTC.
Time now 2019-Nov-18 01:16 UTC

Location: N 59°22' E 018°39'.
View on Google Maps.

See reports from other nearby stations

  
Tides and Currents Weather Stations Pressure Air Temp Water Temp Dewpoint Dewpoint Depression Visibility Wind Speed Wind Dir Waves Ship Positions
date/time (UTC)wind fromknots sea level pressurealtimeterstation pressurevisibilityair tempwater tempwave heightnotes
2019-Nov-18 00:08 190 4.4
2019-Nov-17 23:53 189 4.4
2019-Nov-17 23:48 188 3.9
2019-Nov-17 23:43 189 4.4
2019-Nov-17 23:38 189 4.4
2019-Nov-17 23:33 193 3.9
2019-Nov-17 23:28 184 3.3
2019-Nov-17 23:23 172 3.3
2019-Nov-17 23:18 167 3.9
2019-Nov-17 23:13 163 3.9
2019-Nov-17 23:08 179 3.9
2019-Nov-17 23:03 171 3.9
2019-Nov-17 22:58 178 3.9
2019-Nov-17 22:53 169 3.3
2019-Nov-17 22:48 176 3.3
2019-Nov-17 22:43 177 3.3
2019-Nov-17 22:38 185 3.9
2019-Nov-17 22:28 195 3.9
2019-Nov-17 22:23 184 3.9
2019-Nov-17 22:18 184 3.3
2019-Nov-17 22:13 182 2.8
2019-Nov-17 22:03 180 3.3
2019-Nov-17 21:58 179 3.9
2019-Nov-17 21:48 180 3.9
2019-Nov-17 21:38 179 3.3
2019-Nov-17 21:23 182 3.3
2019-Nov-17 21:18 182 3.9
2019-Nov-17 21:13 186 3.9
2019-Nov-17 21:03 264 4.4
2019-Nov-17 20:58 4.4
2019-Nov-17 20:53 294 4.4
2019-Nov-17 20:43 5.0
2019-Nov-17 20:38 5.0
2019-Nov-17 20:33 5.0
2019-Nov-17 20:28 5.0
2019-Nov-17 20:18 295 5.0
2019-Nov-17 20:13 311 5.0
2019-Nov-17 20:08 329 5.6
2019-Nov-17 20:03 5.6
2019-Nov-17 19:58 6.1
2019-Nov-17 19:53 295 6.1
2019-Nov-17 19:38 6.1
2019-Nov-17 19:33 6.1
2019-Nov-17 19:28 329 0 gusting 6 6.1
2019-Nov-17 19:23 332 0 gusting 4 6.1
2019-Nov-17 19:13 292 6.7
2019-Nov-17 19:08 291 0 gusting 4 6.7
2019-Nov-17 19:03 6.7
2019-Nov-17 18:58 6.7
2019-Nov-17 18:48 348 6.7
2019-Nov-17 18:43 309 6.7
2019-Nov-17 18:38 7.2
2019-Nov-17 18:33 322 7.2
2019-Nov-17 18:28 324 7.2
2019-Nov-17 18:23 7.2
2019-Nov-17 18:13 325 7.2
2019-Nov-17 17:58 295 7.8
2019-Nov-17 17:33 296 7.8
2019-Nov-17 17:23 311 7.8
2019-Nov-17 17:18 291 7.8
2019-Nov-17 17:13 7.8
2019-Nov-17 17:08 313 7.8
2019-Nov-17 16:53 302 8.3
2019-Nov-17 16:48 299 8.3
2019-Nov-17 16:38 295 8.3
2019-Nov-17 16:33 293 8.3
2019-Nov-17 16:28 295 8.3
2019-Nov-17 16:13 324 8.3
2019-Nov-17 16:08 304 8.3
2019-Nov-17 16:03 294 8.3
2019-Nov-17 15:58 288 8.3
2019-Nov-17 15:53 292 8.3
2019-Nov-17 15:43 305 8.3
2019-Nov-17 15:33 286 8.3
2019-Nov-17 15:28 306 8.3
2019-Nov-17 15:18 298 8.9
2019-Nov-17 15:13 288 8.9
2019-Nov-17 15:08 294 8.9
2019-Nov-17 15:03 290 8.9
2019-Nov-17 14:58 277 8.9
2019-Nov-17 14:53 333 8.9
2019-Nov-17 14:48 297 8.9
2019-Nov-17 14:43 8.9
2019-Nov-17 14:38 302 8.9
2019-Nov-17 14:28 297 8.9
2019-Nov-17 14:18 288 8.9
2019-Nov-17 14:13 292 8.9
2019-Nov-17 14:08 287 8.9
2019-Nov-17 13:53 354 8.9
2019-Nov-17 13:48 292 8.9
2019-Nov-17 13:28 292 8.9
2019-Nov-17 13:23 287 8.9
2019-Nov-17 13:13 276 8.9
2019-Nov-17 13:08 284 8.9
2019-Nov-17 12:58 280 8.9
2019-Nov-17 12:48 287 8.9
2019-Nov-17 12:43 309 8.9
2019-Nov-17 12:33 308 8.9
2019-Nov-17 12:28 301 8.9
2019-Nov-17 12:23 282 8.9
2019-Nov-17 12:18 276 0 gusting 14 9.4
2019-Nov-17 12:13 289 0 gusting 14 9.4
2019-Nov-17 12:08 283 0 gusting 17 9.4
2019-Nov-17 12:03 286 1 gusting 11 9.4
2019-Nov-17 11:48 279 6 gusting 17 9.4
2019-Nov-17 11:43 288 6 gusting 17 9.4
2019-Nov-17 11:38 292 5 gusting 13 9.4
2019-Nov-17 11:33 288 5 gusting 12 9.4
2019-Nov-17 11:23 289 9.4
2019-Nov-17 11:18 285 10.0
2019-Nov-17 11:08 284 10.0
2019-Nov-17 11:03 276 10.0
2019-Nov-17 10:53 292 10.0
2019-Nov-17 10:43 275 9.4
2019-Nov-17 10:38 275 9.4
2019-Nov-17 10:33 271 9.4
2019-Nov-17 10:23 267 9.4
2019-Nov-17 10:13 277 9.4
2019-Nov-17 10:08 277 9.4
2019-Nov-17 10:03 274 9.4
2019-Nov-17 09:53 300 9.4
2019-Nov-17 09:48 295 9.4
2019-Nov-17 09:33 282 9.4
2019-Nov-17 09:28 291 8.9
2019-Nov-17 09:23 291 1 gusting 7 8.9
2019-Nov-17 09:18 290 8.9
2019-Nov-17 09:03 293 2 gusting 18 8.9
2019-Nov-17 08:58 305 0 gusting 10 8.9
2019-Nov-17 08:53 8.9
2019-Nov-17 08:38 296 8.9
2019-Nov-17 08:33 8.9
2019-Nov-17 08:28 296 8.9
2019-Nov-17 08:23 298 8.9
2019-Nov-17 08:18 338 8.9
2019-Nov-17 08:13 347 8.9
2019-Nov-17 08:08 294 8.9
2019-Nov-17 08:03 326 8.9
2019-Nov-17 07:58 8.9
2019-Nov-17 07:53 320 8.9
2019-Nov-17 07:48 321 8.9
2019-Nov-17 07:43 287 8.9
2019-Nov-17 07:38 291 8.9
2019-Nov-17 07:33 328 8.9
2019-Nov-17 07:23 299 8.9
2019-Nov-17 07:18 290 8.9
2019-Nov-17 07:13 288 8.9
2019-Nov-17 07:08 8.9
2019-Nov-17 07:03 283 8.9
2019-Nov-17 06:53 284 8.9
2019-Nov-17 06:38 8.9
2019-Nov-17 06:28 346 8.9
2019-Nov-17 06:23 326 8.9
2019-Nov-17 06:18 329 8.9
2019-Nov-17 06:08 277 8.9
2019-Nov-17 05:58 8.9
2019-Nov-17 05:48 8.9
2019-Nov-17 05:43 313 8.9
2019-Nov-17 05:38 8.9
2019-Nov-17 05:28 293 4 gusting 13 8.9
2019-Nov-17 05:23 8.9
2019-Nov-17 05:18 273 8.9
2019-Nov-17 05:03 285 0 gusting 10 8.3
2019-Nov-17 04:58 288 8.3
2019-Nov-17 04:53 292 8.3
2019-Nov-17 04:48 296 8.3
2019-Nov-17 04:43 286 8.3
2019-Nov-17 04:38 347 8.3
2019-Nov-17 04:28 277 8.3
2019-Nov-17 04:23 266 8.3
2019-Nov-17 04:18 269 8.3
2019-Nov-17 04:13 276 8.3
2019-Nov-17 04:08 272 8.3
2019-Nov-17 04:03 268 8.3
2019-Nov-17 03:58 272 8.3
2019-Nov-17 03:53 284 8.3
2019-Nov-17 03:48 325 8.3
2019-Nov-17 03:38 273 8.3
2019-Nov-17 03:33 271 8.3
2019-Nov-17 03:28 271 8.3
2019-Nov-17 03:23 269 8.3
2019-Nov-17 03:18 261 8.3
2019-Nov-17 03:13 8.3
2019-Nov-17 02:58 259 8.9
2019-Nov-17 02:53 271 8.9
2019-Nov-17 02:48 234 8.9
2019-Nov-17 02:43 240 8.9
2019-Nov-17 02:38 248 8.9
2019-Nov-17 02:18 239 11 gusting 20 8.9
2019-Nov-17 02:13 237 8 gusting 22 8.9
2019-Nov-17 02:03 232 4 gusting 18 8.9
2019-Nov-17 01:53 236 7 gusting 22 8.9
2019-Nov-17 01:45 226 5 gusting 20 9.4
2019-Nov-17 01:33 247 4 gusting 19 9.4
2019-Nov-17 01:28 238 6 gusting 13 9.4
2019-Nov-17 01:23 246 6 gusting 14 9.4
2019-Nov-17 01:13 242 3 gusting 13 9.4
2019-Nov-17 01:08 238 5 gusting 13 9.4
2019-Nov-17 00:58 229 3 gusting 12 9.4
2019-Nov-17 00:53 245 4 gusting 10 10.0
2019-Nov-17 00:48 237 5 gusting 12 10.0
2019-Nov-17 00:43 236 6 gusting 13 10.0
2019-Nov-17 00:38 235 7 gusting 13 10.0
2019-Nov-17 00:33 233 6 gusting 13 10.0
2019-Nov-17 00:23 229 5 gusting 11 10.0
2019-Nov-17 00:18 226 5 gusting 13 10.0
2019-Nov-17 00:13 226 5 gusting 17 10.0
2019-Nov-17 00:08 229 6 gusting 12 9.4
2019-Nov-16 23:58 231 0 gusting 10 9.4
2019-Nov-16 23:53 228 5 gusting 11 9.4
2019-Nov-16 23:48 205 2 gusting 10 9.4
2019-Nov-16 23:43 223 4 gusting 10 9.4
2019-Nov-16 23:28 227 6 gusting 11 9.4
2019-Nov-16 23:23 223 4 gusting 11 9.4
2019-Nov-16 23:13 218 2 gusting 13 9.4
2019-Nov-16 23:08 248 3 gusting 17 9.4
2019-Nov-16 23:03 213 1 gusting 12 9.4
2019-Nov-16 22:38 199 4 gusting 11 8.9
2019-Nov-16 22:23 232 4 gusting 10 8.9
2019-Nov-16 22:08 202 3 gusting 12 8.9
2019-Nov-16 21:58 192 4 gusting 13 8.9
2019-Nov-16 21:53 209 5 gusting 12 8.3
2019-Nov-16 21:48 219 2 gusting 17 8.3
2019-Nov-16 21:38 190 5 gusting 14 8.3
2019-Nov-16 21:33 202 3 gusting 14 8.3
2019-Nov-16 21:28 193 2 gusting 11 8.3
2019-Nov-16 21:23 201 4 gusting 10 8.3
2019-Nov-16 21:03 202 2 gusting 12 8.3
2019-Nov-16 20:58 205 3 gusting 8 8.3
2019-Nov-16 20:53 215 1 gusting 10 8.3
2019-Nov-16 20:48 217 5 gusting 10 8.3
2019-Nov-16 20:43 219 6 gusting 10 8.3
2019-Nov-16 20:38 200 4 gusting 8 8.3
2019-Nov-16 20:28 202 3 gusting 12 8.3
2019-Nov-16 20:23 190 4 gusting 13 8.3
2019-Nov-16 20:18 189 1 gusting 8 8.3
2019-Nov-16 20:08 168 0 gusting 8 8.3
2019-Nov-16 20:03 201 2 gusting 6 8.3
2019-Nov-16 19:58 201 4 gusting 14 8.3
2019-Nov-16 19:53 203 4 gusting 10 8.3
2019-Nov-16 19:48 195 2 gusting 12 8.3
2019-Nov-16 19:43 209 6 gusting 10 8.3
2019-Nov-16 19:38 213 3 gusting 8 8.3
2019-Nov-16 19:33 210 5 gusting 12 8.3
2019-Nov-16 19:23 195 4 gusting 10 8.3
2019-Nov-16 19:18 163 1 gusting 11 8.3
2019-Nov-16 19:13 172 2 gusting 13 8.3
2019-Nov-16 19:08 193 2 gusting 10 8.3
2019-Nov-16 19:03 222 1 gusting 7 8.3
2019-Nov-16 18:58 232 1 gusting 7 8.3
2019-Nov-16 18:53 207 2 gusting 13 8.3
2019-Nov-16 18:48 213 4 gusting 13 8.3
2019-Nov-16 18:43 194 6 gusting 11 8.3
2019-Nov-16 18:38 217 3 gusting 10 8.3
2019-Nov-16 18:28 176 0 gusting 13 8.3
2019-Nov-16 18:18 169 3 gusting 7 8.3
2019-Nov-16 18:13 241 3 gusting 11 8.3
2019-Nov-16 18:08 178 1 gusting 11 8.3
2019-Nov-16 17:58 191 8.3
2019-Nov-16 17:53 198 8.3
2019-Nov-16 17:43 166 8.3
2019-Nov-16 17:38 211 8.3
2019-Nov-16 17:33 249 8.3
2019-Nov-16 17:23 225 8.3
2019-Nov-16 17:18 176 8.3
2019-Nov-16 17:13 138 8.3
2019-Nov-16 17:08 189 8.3
2019-Nov-16 17:03 202 8.3
2019-Nov-16 16:58 190 8.3
2019-Nov-16 16:53 178 8.3
2019-Nov-16 16:48 193 8.3
2019-Nov-16 16:43 182 8.3
2019-Nov-16 16:38 210 8.3
2019-Nov-16 16:33 185 8.3
2019-Nov-16 16:23 190 8.3
2019-Nov-16 16:18 183 8.3
2019-Nov-16 16:13 157 8.3
2019-Nov-16 16:03 169 8.3
2019-Nov-16 15:58 177 8.3
2019-Nov-16 15:53 189 8.3
2019-Nov-16 15:38 219 8.3
2019-Nov-16 15:33 173 8.3
2019-Nov-16 15:28 192 8.3
2019-Nov-16 15:23 187 8.3
2019-Nov-16 15:18 184 8.3
2019-Nov-16 15:13 162 8.3
2019-Nov-16 15:08 193 8.3
2019-Nov-16 14:58 189 8.3
2019-Nov-16 14:53 211 8.3
2019-Nov-16 14:48 183 8.3
2019-Nov-16 14:43 178 8.3
2019-Nov-16 14:33 164 8.3
2019-Nov-16 14:23 155 7.8
2019-Nov-16 14:18 189 7.8
2019-Nov-16 14:08 183 7.8
2019-Nov-16 14:03 162 7.8
2019-Nov-16 13:53 199 7.8
2019-Nov-16 13:43 175 7.8
2019-Nov-16 13:28 126 7.8
2019-Nov-16 13:23 144 7.8
2019-Nov-16 13:18 173 7.8
2019-Nov-16 13:08 194 7.8
2019-Nov-16 13:03 178 7.8
2019-Nov-16 12:58 205 7.8
2019-Nov-16 12:48 198 0 gusting 4 7.8
2019-Nov-16 12:43 192 1 gusting 7 8.3
2019-Nov-16 12:38 157 0 gusting 6 8.3
2019-Nov-16 12:18 192 8.3
2019-Nov-16 12:13 195 2 gusting 7 8.3
2019-Nov-16 12:08 189 2 gusting 7 8.3
2019-Nov-16 12:03 194 0 gusting 6 8.3
2019-Nov-16 11:53 186 2 gusting 10 8.3
2019-Nov-16 11:48 204 0 gusting 6 8.3
2019-Nov-16 11:38 7.8
2019-Nov-16 11:33 158 0 gusting 6 7.8
2019-Nov-16 11:28 167 7.8
2019-Nov-16 11:18 182 0 gusting 7 7.8
2019-Nov-16 11:08 207 1 gusting 8 8.3
2019-Nov-16 11:03 196 0 gusting 5 8.3
2019-Nov-16 10:58 195 0 gusting 6 8.3
2019-Nov-16 10:53 144 2 gusting 7 7.8
2019-Nov-16 10:48 172 1 gusting 10 7.8
2019-Nov-16 10:38 188 7.8
2019-Nov-16 10:23 217 0 gusting 5 7.8
2019-Nov-16 10:18 7.8
2019-Nov-16 10:08 188 1 gusting 6 7.8
2019-Nov-16 10:03 151 2 gusting 8 7.8
2019-Nov-16 09:58 215 0 gusting 6 7.8
2019-Nov-16 09:53 204 0 gusting 7 7.8
2019-Nov-16 09:48 196 0 gusting 10 7.8
2019-Nov-16 09:43 185 7.8
2019-Nov-16 09:38 194 1 gusting 10 7.8
2019-Nov-16 09:23 168 1 gusting 8 7.8
2019-Nov-16 09:18 163 0 gusting 8 7.8
2019-Nov-16 09:13 168 1 gusting 11 7.8
2019-Nov-16 09:08 157 1 gusting 10 7.8
2019-Nov-16 09:03 177 1 gusting 7 7.8
2019-Nov-16 08:58 158 1 gusting 8 7.8
2019-Nov-16 08:53 157 1 gusting 8 7.8
2019-Nov-16 08:48 180 1 gusting 10 7.8
2019-Nov-16 08:43 180 1 gusting 7 7.8
2019-Nov-16 08:33 167 1 gusting 6 7.8
2019-Nov-16 08:28 180 2 gusting 7 7.8
2019-Nov-16 08:13 213 2 gusting 8 7.8
2019-Nov-16 08:03 198 0 gusting 10 7.8
2019-Nov-16 07:58 181 7.8
2019-Nov-16 07:53 169 0 gusting 6 7.8
2019-Nov-16 07:48 194 0 gusting 5 7.8
2019-Nov-16 07:43 171 2 gusting 8 7.8
2019-Nov-16 07:38 177 2 gusting 8 7.8
2019-Nov-16 07:23 159 7.8
2019-Nov-16 07:13 164 0 gusting 6 7.8
2019-Nov-16 07:08 177 0 gusting 10 7.8
2019-Nov-16 07:03 163 0 gusting 10 7.8
2019-Nov-16 06:53 156 2 gusting 10 7.8
2019-Nov-16 06:48 170 1 gusting 8 7.8
2019-Nov-16 06:43 164 0 gusting 7 7.8
2019-Nov-16 06:33 152 1 gusting 7 7.8
2019-Nov-16 06:28 172 1 gusting 10 7.8
2019-Nov-16 06:23 144 7.8
2019-Nov-16 06:13 169 2 gusting 6 7.8
2019-Nov-16 06:03 170 0 gusting 10 7.8
2019-Nov-16 05:58 167 1 gusting 7 7.8
2019-Nov-16 05:53 156 7.2
2019-Nov-16 05:48 162 3 gusting 10 7.2
2019-Nov-16 05:38 151 0 gusting 7 7.2
2019-Nov-16 05:28 130 1 gusting 7 7.8
2019-Nov-16 05:13 160 0 gusting 6 7.8
2019-Nov-16 05:08 159 7.8
2019-Nov-16 04:58 160 1 gusting 10 7.8
2019-Nov-16 04:53 168 0 gusting 11 7.8
2019-Nov-16 04:48 179 2 gusting 8 7.8
2019-Nov-16 04:43 161 2 gusting 10 7.2
2019-Nov-16 04:28 155 0 gusting 7 7.2
2019-Nov-16 04:18 164 1 gusting 7 7.2
2019-Nov-16 04:08 156 0 gusting 8 7.2
2019-Nov-16 04:03 159 0 gusting 10 7.2
2019-Nov-16 03:58 161 0 gusting 6 7.2
2019-Nov-16 03:53 166 0 gusting 5 7.2
2019-Nov-16 03:48 174 0 gusting 8 7.2
2019-Nov-16 03:43 167 1 gusting 7 7.2
2019-Nov-16 03:38 152 1 gusting 6 7.2
2019-Nov-16 03:33 178 2 gusting 13 7.2
2019-Nov-16 03:28 172 2 gusting 8 7.2
2019-Nov-16 03:23 161 0 gusting 7 7.2
2019-Nov-16 03:18 171 1 gusting 10 7.2
2019-Nov-16 03:13 173 3 gusting 11 7.2
2019-Nov-16 03:08 180 5 gusting 17 7.2
2019-Nov-16 02:58 146 1 gusting 7 7.2
2019-Nov-16 02:48 159 4 gusting 10 7.2
2019-Nov-16 02:43 185 2 gusting 10 7.2
2019-Nov-16 02:38 175 0 gusting 10 7.2
2019-Nov-16 02:28 155 2 gusting 10 7.2
2019-Nov-16 02:23 150 0 gusting 10 7.2
2019-Nov-16 02:13 158 5 gusting 12 7.2
2019-Nov-16 02:08 142 0 gusting 13 7.2
2019-Nov-16 02:03 155 4 gusting 10 6.7
2019-Nov-16 01:58 167 4 gusting 11 6.7
2019-Nov-16 01:53 148 2 gusting 15 6.7
2019-Nov-16 01:48 146 2 gusting 14 7.2
2019-Nov-16 01:43 159 2 gusting 10 7.2
2019-Nov-16 01:38 143 2 gusting 8 7.2
2019-Nov-16 01:33 142 0 gusting 7 7.2
2019-Nov-16 01:28 163 1 gusting 13 7.2
2019-Nov-16 01:23 164 2 gusting 14 7.2
2019-Nov-16 01:13 156 0 gusting 11 6.7
2019-Nov-16 01:08 169 3 gusting 10 6.7
2019-Nov-16 01:03 158 1 gusting 10 6.7